Regional Weather Roundup
Issued by NWS

Home | Current Version | Previous Version | Text Only | Print | Product List | Glossary On
Versions: 1 2 3 4 5 6 7 8 9 10 11 12 13 14 15 16 17 18 19 20 21 22 23 24 25 26 27 28 29 30 31 32 33 34 35 36 37 38 39 40 41 42 43 44 45 46 47 48 49 50
000
ASUS45 KBOI 220110
RWRID
WEATHER ROUNDUP FOR IDAHO
NATIONAL WEATHER SERVICE BOISE ID
700 PM MDT SUN SEP 21 2014

NOTE: "FAIR" INDICATES FEW OR NO CLOUDS BELOW 12000 FEET
WITH NO SIGNIFICANT WEATHER AND/OR OBSTRUCTIONS TO VISIBILITY

IDZ012-014-220200-
SOUTHWEST IDAHO


CITY           SKY/WX    TMP DP  RH WIND       PRES   REMARKS
BOISE          CLOUDY    74  51  44 S16G23    30.00S
CALDWELL       CLOUDY    75  46  35 S17       30.01R
MOUNTAIN HOME  CLOUDY    66  65  99 SE10      30.04S
$$

IDZ016-017-220200-
SOUTHCENTRAL IDAHO


CITY           SKY/WX    TMP DP  RH WIND       PRES   REMARKS
BURLEY         LGT RAIN  61  58  90 NE7       30.09F
JEROME         LGT RAIN  60  56  86 E10       30.10R
TWIN FALLS     LGT RAIN  63  57  81 E6        30.09S
$$

IDZ019>023-220200-
SOUTHEAST IDAHO


CITY           SKY/WX    TMP DP  RH WIND       PRES   REMARKS
IDAHO FALLS    CLOUDY    72  46  39 S15       30.13S
POCATELLO      LGT RAIN  61  57  87 SW14      30.15R
REXBURG        CLOUDY    69  44  40 SW8       30.13F
$$

IDZ006-010-011-018-031-032-220200-
CENTRAL IDAHO MOUNTAINS


CITY           SKY/WX    TMP DP  RH WIND       PRES   REMARKS
MCCALL         CLOUDY    72  39  30 W6        30.08F
HAILEY         CLOUDY    64  50  59 S9        30.16R
STANLEY          N/A     69  39  33 NW5       30.17S
SALMON         CLOUDY    72  54  53 CALM      29.97S
CHALLIS        CLOUDY    74  40  29 SE7       30.05F
$$

IDZ002-004-006-007-026-220200-
NORTHERN IDAHO


CITY           SKY/WX    TMP DP  RH WIND       PRES   REMARKS
LEWISTON       MOCLDY    90  42  18 CALM      29.84F
LOWELL           N/A     71  60  68 CALM      29.85R
COEUR D`ALENE  CLEAR     84  46  26 NE5       29.88F
MULLAN PASS    PTCLDY    71  38  29 CALM      30.14S
$$


USA.gov is the U.S. government's official web portal to all federal, state and local government web resources and services.